Terminal Aerodrome Forecast
Issued by NWS

Home | Current Version | Previous Version | Graphics & Text | Print | Product List | Glossary On
Versions: 1 2 3 4 5 6 7 8 9 10 11 12 13 14 15 16 17
000
FTUS43 KABR 231700
TAFPIR
TAF
KPIR 231720Z 2318/2418 29018G28KT P6SM BKN040
     FM232100 31025G35KT P6SM OVC040
     FM241000 32018G25KT P6SM BKN050
     FM241300 32018KT P6SM FEW050=

USA.gov is the U.S. government's official web portal to all federal, state and local government web resources and services.